Weather History for Gallup, NM

Change the Weather History Date:

Sunday, December 1, 2013

  Actual Average Record
Temperature  
Mean Temperature 30 °F -  
Max Temperature 34 °F 46 °F 64 °F (2003)
Min Temperature 26 °F 15 °F -5 °F (1976)
Degree Days  
Heating Degree Days 35    
Moisture  
Dew Point 28 °F    
Average Humidity 96    
Maximum Humidity 100    
Minimum Humidity 92    
Precipitation  
Precipitation 0.00 in - - ()
Sea Level Pressure  
Sea Level Pressure 30.40 in    
Wind  
Wind Speed 2 mph (SSW)    
Max Wind Speed 10 mph    
Max Gust Speed -    
Visibility 6 miles    
Events Fog    
Averages and records for this station are not official NWS values.
T = Trace of Precipitation, MM = Missing Value Source: NWS Daily Summary

Daily Weather History Graph

Daily Weather History Graph

Search for Another Location

Airport:

Trip Planner

Search our weather history database for the weather conditions in past years. The results will help you decide how hot, cold, wet, or windy it might be!

Date:

Astronomy

Dec. 01, 2013 Rise Set
Actual Time 7:06 AM MST 5:02 PM MST
Civil Twilight 6:38 AM MST 5:30 PM MST
Nautical Twilight 6:06 AM MST 6:01 PM MST
Astronomical Twilight 5:36 AM MST 6:32 PM MST
Moon 5:30 AM MST (12/1) 4:12 PM MST (12/1)
Length of Visible Light 10h 51m
Length of Day
9h 55m
Waning Crescent, 2% of the Moon is Illuminated
Dec 1
Waning Crescent
Dec 2
New
Dec 9
First Quarter
Dec 17
Full
Dec 25
Last Quarter

Hourly Weather History & Observations

Time (MST) Temp. Windchill Dew Point Humidity Pressure Visibility Wind Dir Wind Speed Gust Speed Precip Events Conditions
12:53 AM 28.0 °F - 27.0 °F 96% 30.35 in 0.5 mi Calm Calm - N/A Fog Light Freezing Fog
1:53 AM 28.0 °F - 28.0 °F 100% 30.32 in 0.8 mi Calm Calm - N/A   Mist
2:53 AM 28.0 °F - 27.0 °F 96% 30.30 in 0.8 mi Calm Calm - N/A   Mist
3:53 AM 28.0 °F - 27.0 °F 96% 30.34 in 0.5 mi Calm Calm - N/A Fog Light Freezing Fog
4:30 AM 27.0 °F - 27.0 °F 100% 30.32 in 0.2 mi Calm Calm - N/A Fog Light Freezing Fog
4:50 AM 26.6 °F - 26.6 °F 100% 30.33 in 0.5 mi Calm Calm - N/A Fog Light Freezing Fog
4:53 AM 27.0 °F 23.0 °F 26.1 °F 96% 30.39 in 0.2 mi North 3.5 mph - N/A Fog Light Freezing Fog
5:09 AM 27.0 °F - 27.0 °F 100% 30.33 in 0.5 mi Calm Calm - N/A Fog Light Freezing Fog
5:53 AM 27.0 °F - 27.0 °F 100% 30.42 in 0.5 mi Calm Calm - N/A Fog Light Freezing Fog
6:53 AM 27.0 °F - 26.1 °F 96% 30.47 in 1.0 mi Calm Calm - N/A   Mist
7:06 AM 27.0 °F 21.6 °F 25.0 °F 92% 30.38 in 3.0 mi NNW 4.6 mph - N/A   Overcast
7:53 AM 27.0 °F - 26.1 °F 96% 30.49 in 6.0 mi Calm Calm - 0.00 in   Overcast
8:50 AM 26.6 °F - 26.6 °F 100% 30.40 in 2.5 mi Calm Calm - N/A   Overcast
8:53 AM 27.0 °F - 26.1 °F 96% 30.50 in 2.5 mi Calm Calm - N/A   Overcast
9:22 AM 27.0 °F 23.0 °F 27.0 °F 100% 30.40 in 1.5 mi South 3.5 mph - N/A   Overcast
9:29 AM 27.0 °F 20.5 °F 26.1 °F 96% 30.40 in 3.0 mi SSW 5.8 mph - N/A   Overcast
9:53 AM 27.0 °F - 27.0 °F 100% 30.52 in 2.0 mi Calm Calm - N/A   Overcast
10:09 AM 28.0 °F 24.2 °F 27.0 °F 96% 30.40 in 4.0 mi ESE 3.5 mph - N/A   Overcast
10:53 AM 28.9 °F 23.9 °F 28.0 °F 96% 30.50 in 6.0 mi South 4.6 mph - N/A   Overcast
11:53 AM 30.0 °F 24.1 °F 28.9 °F 96% 30.48 in 10.0 mi Variable 5.8 mph - N/A   Overcast
12:53 PM 30.9 °F - 30.0 °F 96% 30.44 in 10.0 mi Calm Calm - N/A   Overcast
1:53 PM 32.0 °F 27.5 °F 30.9 °F 96% 30.41 in 10.0 mi WSW 4.6 mph - N/A   Overcast
2:07 PM 32.0 °F 25.6 °F 30.9 °F 96% 30.33 in 10.0 mi SW 6.9 mph - N/A   Overcast
2:53 PM 33.1 °F 30.0 °F 32.0 °F 96% 30.39 in 10.0 mi West 3.5 mph - N/A   Overcast
3:53 PM 34.0 °F 28.8 °F 32.0 °F 92% 30.38 in 10.0 mi WSW 5.8 mph - N/A   Overcast
4:53 PM 34.0 °F 27.2 °F 32.0 °F 92% 30.38 in 10.0 mi WSW 8.1 mph - N/A   Overcast
5:53 PM 33.1 °F 24.9 °F 30.9 °F 92% 30.40 in 10.0 mi SW 10.4 mph - N/A   Overcast
6:41 PM 32.0 °F 25.6 °F 30.9 °F 96% 30.33 in 10.0 mi SW 6.9 mph - N/A   Overcast
6:53 PM 32.0 °F 27.5 °F 30.0 °F 92% 30.40 in 10.0 mi SW 4.6 mph - N/A   Overcast
7:53 PM 32.0 °F 25.6 °F 30.0 °F 92% 30.40 in 10.0 mi South 6.9 mph - N/A   Overcast
8:53 PM 30.9 °F 25.2 °F 30.0 °F 96% 30.42 in 10.0 mi South 5.8 mph - N/A   Overcast
9:53 PM 30.0 °F 21.1 °F 28.0 °F 92% 30.44 in 10.0 mi SSW 10.4 mph - N/A   Overcast
10:04 PM 28.9 °F 20.4 °F 27.0 °F 92% 30.34 in 10.0 mi South 9.2 mph - N/A   Overcast
10:53 PM 28.9 °F 21.1 °F 27.0 °F 92% 30.42 in 10.0 mi South 8.1 mph - N/A   Overcast
11:53 PM 28.0 °F 20.0 °F 26.1 °F 92% 30.42 in 10.0 mi SSW 8.1 mph - N/A   Overcast